Regional Weather Roundup
Issued by NWS

Home | Current Version | Previous Version | Text Only | Print | Product List | Glossary Off
Versions: 1 2 3 4 5 6 7 8 9 10 11 12 13 14 15 16 17 18 19 20 21 22 23 24 25 26 27 28 29 30 31 32 33 34 35 36 37 38 39 40 41 42 43 44 45 46 47 48 49 50

000
ASUS43 KDTX 271310
RWRMI
MICHIGAN HOURLY REGIONAL WEATHER ROUNDUP
NATIONAL WEATHER SERVICE DETROIT/PONTIAC MI
800 AM EST FRI FEB 27 2015

NOTE: "FAIR" INDICATES FEW OR NO CLOUDS BELOW 12,000 FEET WITH NO
SIGNIFICANT WEATHER AND/OR OBSTRUCTION TO VISIBILITY.

MIZ047>049-052>055-059>063-066>070-074>076-081>083-271400-
SOUTHEAST LOWER MICHIGAN

CITY           SKY/WX    TMP DP  RH WIND       PRES   REMARKS
ADRIAN         CLEAR     -8 -12  83 N3        30.49R
ALMA           CLEAR    -13 -19  76 CALM      30.48R
ANN ARBOR      CLEAR    -13 -16  86 W5        30.47R WCI -25
BAD AXE        CLEAR    -11 -15  81 CALM      30.46R
CARO           CLEAR    -19 -25  75 CALM      30.48R
DETROIT CITY   CLEAR      0  -4  83 CALM      30.49R
DETROIT        CLEAR     -2  -7  79 CALM      30.50R
FLINT          CLEAR    -14 -20  74 CALM      30.48R
GROSSE ILE     HAZE      -8 -11  84 CALM      30.49R VSB 1/2
HILLSDALE      PTCLDY    -9 -15  74 CALM      30.44R
HOWELL         CLEAR     -9 -14  78 CALM      30.46R HAZE

CITY           SKY/WX    TMP DP  RH WIND       PRES   REMARKS
JACKSON        CLEAR    -13 -16  86 CALM      30.46R FOG
LAMBERTVILLE   CLEAR     -6 -11  77 CALM      30.50R
LANSING        CLEAR     -8 -13  78 CALM      30.48R
LAPEER         FAIR     -19 -25  73 CALM      30.47R
MASON          FAIR     -14 -19  76 CALM      30.46S
MONROE         CLEAR     -9 -15  77 CALM      30.48R
MT. CLEMENS    PTCLDY    -4  -8  81 CALM      30.46R
PONTIAC        CLEAR    -10 -15  78 CALM      30.44R
PORT HOPE        N/A     -6 -11  79 SW7       30.45R WCI -20
PORT HURON     CLEAR    -17 -20  83 CALM      30.48R
TRI CITIES     CLEAR     -7 -13  75 SW6       30.48R WCI -20
TROY           CLEAR      1  -5  75 CALM      30.50R
SAGINAW HB     CLEAR     -8 -13  77 SW5       30.49R WCI -19
$$
MIZ043>046-050>051-056>058-064>065-071>073-077>080-271400-
SOUTHWEST LOWER MICHIGAN

CITY           SKY/WX    TMP DP  RH WIND       PRES   REMARKS
BATTLE CREEK   CLEAR     -8 -14  74 CALM      30.47R
BENTON HARBOR  CLOUDY    -5  -8  87 CALM      30.51R
BIG RAPIDS     PTCLDY   -19 -24  76 CALM      30.44R
COLDWATER      PTCLDY   -14 -20  75 CALM      30.47R
FREMONT        PTSUNNY  -11 -17  74 CALM      30.47R
HOLLAND        CLOUDY     2  -9  60 S6        30.50R WCI  -9
GRAND RAPIDS   PTCLDY    -7 -14  71 CALM      30.48R
IONIA          FAIR      -7 -13  73 CALM      30.47R
KALAMAZOO      CLEAR     -8 -12  83 SW3       30.49R
LUDINGTON      LGT SNOW  -2  -8  78 CALM      30.47R
MARSHALL       PTCLDY   -19 -25  76 CALM      30.46R
MOUNT PLEASANT PTCLDY   -13 -19  77 CALM      30.46S
MUSKEGON       CLOUDY    -1 -10  65 SE8       30.50R WCI -15
SOUTH HAVEN    CLOUDY    -4 -10  74 CALM      30.51R
$$
MIZ016>042-271400-
NORTHERN LOWER MICHIGAN

CITY           SKY/WX    TMP DP  RH WIND       PRES   REMARKS
ALPENA         CLEAR    -16 -20  82 W3        30.42R
BEAVER ISLAND  CLEAR    -11 -15  81 CALM      30.41R
BELLAIRE       CLEAR    -22 -28  72 CALM      30.46R
CADILLAC       PTCLDY   -24 -31  67 CALM      30.38R
CHARLEVOIX     CLEAR    -14 -19  79 CALM      30.45R
FRANKFORT      CLOUDY   -10 -14  80 CALM      30.45R
GAYLORD        PTCLDY   -18 -22  82 SW3       30.35R
GRAYLING       PTCLDY   -27 -35  64 CALM      30.40R
HARBOR SPRINGS PTCLDY   -10 -15  81 CALM      30.40R
HOUGHTON LAKE  MOCLDY   -21 -27  73 CALM      30.41R
MANISTEE       MOCLDY    -8 -15  71 CALM      30.46R
OSCODA         CLEAR    -14 -19  76 SW6       30.45R WCI -28
PELLSTON       CLEAR    -26 -32  72 CALM      30.41R
ROGERS CITY    CLEAR     -4  -8  84 SW7       30.42R WCI -18
TRAVERSE CITY  PTCLDY   -17 -21  82 CALM      30.44R
$$
MIZ007>008-015-271400-
EASTERN UPPER MICHIGAN

CITY           SKY/WX    TMP DP  RH WIND       PRES   REMARKS
KINROSS        CLEAR     -8  -9  92 SW8       30.36R WCI -23
MACKINAC ISLAN CLEAR     -2  -7  80 SW10      30.38S WCI -19
NEWBERRY       PTCLDY    -9 -11  90 W6        30.36R WCI -22
S. S. MARIE    CLEAR     -9 -15  75 CALM      30.36R
MUNISING         N/A    -12 -18  74 S9        30.40R WCI -30
$$
MIZ004>006-011>014-085-271400-
CENTRAL UPPER MICHIGAN

CITY           SKY/WX    TMP DP  RH WIND       PRES   REMARKS
MANISTIQUE     PTCLDY    -7 -11  80 MISG      30.39S
ESCANABA       PTCLDY    -8 -27  37 W7        30.43R WCI -22
MENOMINEE      CLEAR     -6 -11  77 W3        30.44S
SAWYER-GWINN   CLEAR    -17 -22  76 W3        30.34R
$$
MIZ001>003-009>011-084-271400-
WESTERN UPPER MICHIGAN

CITY           SKY/WX    TMP DP  RH WIND       PRES   REMARKS
IRON MOUNTAIN  PTCLDY   -13 -20  71 NW3       30.37R
HOUGHTON       CLEAR     -3  -8  79 W10       30.33R WCI -20
COPPER HARBOR    N/A      4  -6  63 NW6       30.35R WCI  -7
IRONWOOD       PTCLDY    -9 -18  64 SW6       30.36R WCI -23
$$

ABBREVIATIONS USED IN REMARKS
   TC - TEMPERATURE IN CELSIUS
  WCI - WIND CHILL INDEX
   HX - HEAT INDEX
  VSB - VISIBILITY




USA.gov is the U.S. government's official web portal to all federal, state and local government web resources and services.